Meteo pe oră la Dziki

Astăzi, 2 Martie, Marţi

Timp Temperatura Precipitaţii Vânt Presiune Umiditate
00:00 +1°C° 0 mm 3 m/s 766 mmHg 92%
01:00 +1°C° 0 mm 3 m/s 766 mmHg 92%
02:00 +1°C° 0 mm 3 m/s 766 mmHg 92%
03:00 +1°C° 0 mm 3 m/s 765 mmHg 92%
04:00 0°C° 0 mm 3 m/s 765 mmHg 92%
05:00 0°C° 0 mm 3 m/s 765 mmHg 92%
06:00 0°C° 0 mm 3 m/s 765 mmHg 91%
07:00 -1°C° 0 mm 4 m/s 765 mmHg 91%
08:00 +1°C° 0 mm 4 m/s 765 mmHg 84%
09:00 +3°C° 0 mm 4 m/s 765 mmHg 77%
10:00 +5°C° 0 mm 4 m/s 766 mmHg 71%
11:00 +6°C° 0 mm 4 m/s 766 mmHg 66%
12:00 +7°C° 0 mm 4 m/s 766 mmHg 60%
13:00 +10°C° 0 mm 4 m/s 766 mmHg 55%
14:00 +8°C° 0 mm 4 m/s 766 mmHg 57%
15:00 +9°C° 0 mm 3 m/s 765 mmHg 58%
16:00 +9°C° 0 mm 3 m/s 765 mmHg 60%
17:00 +8°C° 0 mm 2 m/s 765 mmHg 66%
18:00 +6°C° 0 mm 2 m/s 765 mmHg 73%
19:00 +4°C° 0 mm 2 m/s 766 mmHg 79%
20:00 +4°C° 0 mm 2 m/s 766 mmHg 83%
21:00 +4°C° 0 mm 1 m/s 766 mmHg 86%
22:00 +3°C° 0 mm 1 m/s 766 mmHg 90%
23:00 +3°C° 0 mm 1 m/s 766 mmHg 90%

Mâine, 3 Martie, Miercuri

Timp Temperatura Precipitaţii Vânt Presiune Umiditate
00:00 +1°C° 0 mm 0 m/s 766 mmHg 91%
01:00 +1°C° 0 mm 0 m/s 766 mmHg 91%
02:00 +1°C° 0 mm 0 m/s 766 mmHg 91%
03:00 +2°C° 0 mm 1 m/s 765 mmHg 91%
04:00 +2°C° 0 mm 1 m/s 764 mmHg 91%
05:00 +2°C° 0 mm 1 m/s 764 mmHg 91%
06:00 +2°C° 0 mm 1 m/s 764 mmHg 90%
07:00 +2°C° 0 mm 1 m/s 764 mmHg 89%
08:00 +2°C° 0 mm 2 m/s 764 mmHg 81%
09:00 +4°C° 0 mm 2 m/s 763 mmHg 72%
10:00 +5°C° 0 mm 2 m/s 763 mmHg 64%
11:00 +7°C° 0 mm 2 m/s 763 mmHg 61%
12:00 +8°C° 0 mm 2 m/s 762 mmHg 58%
13:00 +9°C° 0 mm 3 m/s 762 mmHg 55%
14:00 +9°C° 0 mm 3 m/s 761 mmHg 57%
15:00 +9°C° 0 mm 3 m/s 760 mmHg 60%
16:00 +9°C° 0 mm 3 m/s 759 mmHg 63%
17:00 +8°C° 0 mm 3 m/s 759 mmHg 70%
18:00 +7°C° 0 mm 3 m/s 758 mmHg 77%
19:00 +4°C° 0 mm 3 m/s 758 mmHg 84%
20:00 +4°C° 0 mm 3 m/s 757 mmHg 86%
21:00 +4°C° 0 mm 3 m/s 756 mmHg 87%
22:00 +3°C° 0 mm 3 m/s 755 mmHg 88%
23:00 +3°C° 0 mm 4 m/s 755 mmHg 90%

Poimâine, 4 Martie, Joi

Timp Temperatura Precipitaţii Vânt Presiune Umiditate
00:00 +3°C° 0 mm 4 m/s 754 mmHg 91%
01:00 +3°C° 0 mm 4 m/s 754 mmHg 93%
02:00 +3°C° 0 mm 4 m/s 753 mmHg 93%
03:00 +1°C° 0 mm 4 m/s 753 mmHg 94%
04:00 +1°C° 0 mm 4 m/s 752 mmHg 95%
05:00 +1°C° 0 mm 4 m/s 752 mmHg 93%
06:00 +1°C° 0 mm 4 m/s 752 mmHg 92%
07:00 +3°C° 0 mm 4 m/s 752 mmHg 90%
08:00 +3°C° 0 mm 4 m/s 751 mmHg 87%
09:00 +1°C° 0 mm 4 m/s 751 mmHg 84%
10:00 +1°C° 0 mm 4 m/s 751 mmHg 80%
11:00 +1°C° 0 mm 4 m/s 751 mmHg 80%
12:00 +1°C° 0 mm 4 m/s 751 mmHg 80%
13:00 +1°C° 0 mm 4 m/s 751 mmHg 80%
14:00 +1°C° 0 mm 4 m/s 751 mmHg 81%
15:00 +2°C° 0 mm 3 m/s 750 mmHg 81%
16:00 +2°C° 0 mm 3 m/s 750 mmHg 82%
17:00 +1°C° 0.1 mm 3 m/s 750 mmHg 86%
18:00 -1°C° 0.1 mm 4 m/s 751 mmHg 91%
19:00 -1°C° 0.1 mm 4 m/s 751 mmHg 95%
20:00 -2°C° 0.1 mm 4 m/s 751 mmHg 92%
21:00 -2°C° 0.1 mm 4 m/s 751 mmHg 90%
22:00 -2°C° 0.1 mm 4 m/s 751 mmHg 87%
23:00 -1°C° 0 mm 3 m/s 752 mmHg 85%

5 Martie, Vineri

Timp Temperatura Precipitaţii Vânt Presiune Umiditate
00:00 -2°C° 0 mm 3 m/s 752 mmHg 83%
01:00 -2°C° 0 mm 3 m/s 752 mmHg 81%
02:00 -2°C° 0 mm 3 m/s 752 mmHg 80%
03:00 -2°C° 0 mm 3 m/s 753 mmHg 80%
04:00 -4°C° 0 mm 3 m/s 753 mmHg 80%
05:00 -4°C° 0 mm 3 m/s 753 mmHg 79%
06:00 -4°C° 0 mm 3 m/s 754 mmHg 78%
07:00 -3°C° 0 mm 2 m/s 754 mmHg 77%
08:00 -2°C° 0 mm 3 m/s 755 mmHg 69%
09:00 0°C° 0 mm 3 m/s 755 mmHg 61%
10:00 +1°C° 0 mm 3 m/s 755 mmHg 53%
11:00 +1°C° 0.2 mm 3 m/s 756 mmHg 50%
12:00 +2°C° 0.2 mm 3 m/s 756 mmHg 47%
13:00 +1°C° 0.2 mm 4 m/s 756 mmHg 44%
14:00 +1°C° 0.1 mm 4 m/s 756 mmHg 46%
15:00 +1°C° 0.1 mm 4 m/s 756 mmHg 48%
16:00 0°C° 0.1 mm 5 m/s 756 mmHg 50%
17:00 -1°C° 0 mm 4 m/s 757 mmHg 58%
18:00 -2°C° 0 mm 4 m/s 758 mmHg 66%
19:00 -3°C° 0 mm 4 m/s 758 mmHg 74%
20:00 -3°C° 0 mm 4 m/s 759 mmHg 75%
21:00 -4°C° 0 mm 3 m/s 759 mmHg 76%
22:00 -4°C° 0 mm 3 m/s 760 mmHg 77%
23:00 -4°C° 0 mm 3 m/s 760 mmHg 73%

6 Martie, Sâmbătă

Timp Temperatura Precipitaţii Vânt Presiune Umiditate
00:00 -4°C° 0 mm 3 m/s 761 mmHg 70%
01:00 -4°C° 0 mm 3 m/s 761 mmHg 66%
02:00 -4°C° 0 mm 3 m/s 761 mmHg 66%
03:00 -4°C° 0 mm 3 m/s 762 mmHg 65%
04:00 -4°C° 0 mm 3 m/s 762 mmHg 65%
05:00 -4°C° 0 mm 3 m/s 762 mmHg 66%
06:00 -4°C° 0 mm 3 m/s 762 mmHg 66%
07:00 -3°C° 0 mm 2 m/s 763 mmHg 67%
08:00 -2°C° 0 mm 3 m/s 763 mmHg 59%
09:00 -1°C° 0 mm 3 m/s 763 mmHg 51%
10:00 0°C° 0 mm 3 m/s 763 mmHg 44%
11:00 0°C° 0 mm 4 m/s 763 mmHg 42%
12:00 +1°C° 0 mm 4 m/s 763 mmHg 41%
13:00 +1°C° 0 mm 4 m/s 763 mmHg 40%
14:00 +1°C° 0 mm 4 m/s 763 mmHg 42%
15:00 +1°C° 0 mm 4 m/s 763 mmHg 43%
16:00 +1°C° 0 mm 4 m/s 763 mmHg 45%
17:00 0°C° 0 mm 4 m/s 762 mmHg 50%
18:00 -1°C° 0 mm 4 m/s 762 mmHg 56%
19:00 -2°C° 0 mm 4 m/s 762 mmHg 62%
20:00 -2°C° 0 mm 4 m/s 761 mmHg 66%
21:00 -2°C° 0 mm 5 m/s 761 mmHg 70%
22:00 -2°C° 0 mm 5 m/s 761 mmHg 75%
23:00 -2°C° 0 mm 5 m/s 761 mmHg 80%

7 Martie, Duminică

Timp Temperatura Precipitaţii Vânt Presiune Umiditate
00:00 -1°C° 0 mm 5 m/s 761 mmHg 85%
01:00 -1°C° 0 mm 6 m/s 761 mmHg 90%
02:00 -2°C° 0 mm 6 m/s 760 mmHg 88%
03:00 -2°C° 0 mm 6 m/s 760 mmHg 86%
04:00 -2°C° 0 mm 6 m/s 759 mmHg 83%
05:00 -2°C° 0 mm 6 m/s 759 mmHg 83%
06:00 -2°C° 0 mm 6 m/s 759 mmHg 83%
07:00 -2°C° 0 mm 6 m/s 759 mmHg 83%
08:00 -2°C° 0 mm 6 m/s 759 mmHg 81%
09:00 -2°C° 0 mm 7 m/s 758 mmHg 79%
10:00 -1°C° 0 mm 7 m/s 758 mmHg 77%
11:00 -1°C° 0 mm 7 m/s 758 mmHg 77%
12:00 -1°C° 0 mm 7 m/s 757 mmHg 77%
13:00 -1°C° 0 mm 7 m/s 757 mmHg 76%
14:00 -1°C° 0 mm 7 m/s 756 mmHg 82%
15:00 -2°C° 0 mm 7 m/s 756 mmHg 87%
16:00 -2°C° 0 mm 7 m/s 755 mmHg 92%
17:00 -1°C° 0.1 mm 7 m/s 754 mmHg 93%
18:00 -1°C° 0.1 mm 7 m/s 754 mmHg 93%
19:00 -1°C° 0.1 mm 7 m/s 753 mmHg 93%
20:00 -1°C° 0.2 mm 7 m/s 753 mmHg 93%
21:00 0°C° 0.2 mm 7 m/s 753 mmHg 93%
22:00 +1°C° 0.2 mm 6 m/s 752 mmHg 92%
23:00 +1°C° 0.1 mm 6 m/s 752 mmHg 93%
Arată mai mult

Formular de consimțământ

Meteoprog și furnizorii noștri de servicii pot stoca și accesa date personale, precum cookies, identificatori de dispozitiv sau alte tehnologii similare pe dispozitivul dumneavoastră și procesa astfel de date pentru a personaliza conținutul și reclamele, dar și pentru a oferi caracteristici de social media și pentru a analiza traficul.

  • Stocarea și/sau accesarea informațiilor pe dispozitivul dumneavoastră

    Cookies, identificatori de dispozitiv sau alte informații pot fi stocate sau accesate pe dispozitiv în scopurile indicate mai sus.

  • Reclame și conținut personalizat, evaluarea reclamelor și a conținutului, informații despre audiențe și dezvoltarea produselor

    Reclamele și conținutul pot fi personalizate pe baza unui profil. Pot fi adăugate date suplimentare pentru a personaliza mai bine reclamele și conținutul. Performanța reclamelor și conținutului poate fi măsurată. Pot fi obținute informații despre utilizatorii care au văzut reclamele și conținutul. Aceste date pot fi utilizate pentru a dezvolta sau îmbunătăți experiența utilizatorilor, sistemele și software-ul.

Dând clic pe ‘Sunt de acord’, permiteți utilizarea cookie-urilor menționate, a identificatorilor de dispozitiv, balizelor web sau altor tehnologii similare. Setările pot fi modificate din browser-ul dispozitivului dumneavoastră.

În anumite scopuri, interesele legitime pot prima asupra consimțământului. Puteți citi mai multe informații în acest sens în Politica privind Confidențialitatea Datelor și Cookie.